www.pogodaiklimat.ru
ПОГОДА в Ташкенте

Архив погоды в Ташкенте (город Ташкент, Узбекистан)

Время
и дата
23:20 16.04
23:40 16.04
23:50 16.04
00:00 17.04
00:10 17.04
01:00 17.04
01:20 17.04
01:30 17.04
02:00 17.04
02:10 17.04
02:20 17.04
02:30 17.04
02:40 17.04
02:50 17.04
03:10 17.04
03:20 17.04
03:30 17.04
03:40 17.04
04:00 17.04
04:10 17.04
04:20 17.04
04:30 17.04
04:40 17.04
04:50 17.04
05:00 17.04
05:10 17.04
05:20 17.04
05:30 17.04
05:50 17.04
06:00 17.04
06:10 17.04
06:20 17.04
06:40 17.04
06:50 17.04
07:00 17.04
07:10 17.04
07:20 17.04
08:40 17.04
09:00 17.04
10:40 17.04
16:20 17.04
16:50 17.04
17:00 17.04
17:20 17.04
17:30 17.04
17:40 17.04
18:00 17.04
18:10 17.04
18:30 17.04
18:40 17.04
19:00 17.04
19:10 17.04
19:20 17.04
19:30 17.04
19:50 17.04
20:10 17.04
20:20 17.04
20:30 17.04
20:40 17.04
20:50 17.04
21:00 17.04
21:10 17.04
21:30 17.04
21:50 17.04
22:00 17.04
22:10 17.04
22:30 17.04
22:40 17.04
22:50 17.04
23:10 17.04
23:20 17.04
23:30 17.04
23:40 17.04
23:50 17.04
00:10 18.04
00:40 18.04
01:00 18.04
01:10 18.04
01:20 18.04
01:30 18.04
01:40 18.04
01:50 18.04
02:10 18.04
02:20 18.04
02:30 18.04
02:40 18.04
03:00 18.04
03:10 18.04
03:20 18.04
03:30 18.04
03:40 18.04
03:50 18.04
04:00 18.04
04:10 18.04
04:20 18.04
04:30 18.04
04:40 18.04
05:00 18.04
05:40 18.04
05:50 18.04
06:00 18.04
06:10 18.04
06:30 18.04
06:40 18.04
06:50 18.04
07:00 18.04
07:20 18.04
07:50 18.04
08:00 18.04
08:10 18.04
08:20 18.04
10:50 18.04
11:40 18.04
12:10 20.04
12:20 20.04
12:30 20.04
12:40 20.04
12:50 20.04
13:00 20.04
13:10 20.04
13:20 20.04
13:30 20.04
13:40 20.04
13:50 20.04
14:00 20.04
14:10 20.04
14:20 20.04
14:30 20.04
14:40 20.04
14:50 20.04
15:00 20.04
15:10 20.04
15:20 20.04
15:30 20.04
15:40 20.04
15:50 20.04
16:00 20.04
16:10 20.04
16:20 20.04
16:30 20.04
16:40 20.04
16:50 20.04
17:00 20.04
17:10 20.04
Ветер
(напр.,м/с)
Видимость Явления Солнечная радиация
(Вт/м2)
Т
(С)
Тd
(С)
f
(%)
Тe
(С)
Тes
(С)
Комфортность P
(гПа)
Po
(гПа)
Тmin
(С)
Tmax
(С)
R
(мм)
В 0.6
{1.0}
+11.9 +11.9 100 +12 +12 1024.1 968.1 +12.0 +12.0
В 0.4
{0.6}
+11.6 +11.6 100 +12 +12 1024.1 968.1 +11.7 +11.6
В 0.2
{0.4}
+11.4 +11.4 100 +13 +13 1024.0 968.0 +11.6 +11.4
В 0.6
{1.3}
+11.4 +11.4 100 +12 +12 1023.9 967.9 +11.4 +11.3
СВ 0.8
{1.3}
+11.5 +11.5 100 +11 +11 1023.8 967.8 +11.5 +11.4
В 1.0
{1.9}
+10.9 +10.9 100 +10 +10 1023.2 967.2 +10.9 +10.8
СВ 0.8
{1.2}
+10.9 +10.9 100 +11 +11 1022.9 967.0 +10.9 +10.9
В 0.7
{1.3}
+10.8 +10.8 100 +11 +11 1022.8 966.9 +11.0 +10.8
СВ 0.8
{1.2}
+10.4 +10.4 100 +10 +10 1022.6 966.7 +10.6 +10.4
СВ 0.6
{1.0}
+10.3 +10.3 100 +10 +10 1022.5 966.6 +10.4 +10.3
В 0.6
{1.4}
+10.2 +10.2 100 +10 +10 1022.4 966.5 +10.3 +10.2
СВ 0.5
{1.1}
+10.1 +10.1 100 +10 +10 1022.3 966.4 +10.2 +10.1
СВ 0.5
{0.9}
+10.0 +10.0 100 +10 +10 1022.2 966.3 +10.1 +10.0
СВ 0.4
{0.7}
+10.0 +10.0 100 +11 +11 1022.0 966.1 +10.0 +10.0
СВ 0.8
{1.5}
+10.0 +10.0 100 +10 +10 1021.8 965.9 +10.0 +9.9
СВ 0.8
{1.4}
+10.0 +10.0 100 +10 +10 1021.7 965.8 +10.0 +10.0
СВ 0.5
{1.2}
+9.8 +9.8 100 +10 +10 1021.7 965.8 +10.0 +9.8
В 0.4
{0.9}
+9.7 +9.7 100 +10 +10 1021.7 965.8 +9.8 +9.7
СЗ 0.6
{1.2}
+9.6 +9.6 100 +10 +10 1021.6 965.7 +9.7 +9.6
С 0.5
{0.9}
+9.5 +9.5 100 +10 +10 1021.6 965.7 +9.6 +9.5
С 0.7
{1.3}
+9.4 +9.4 100 +9 +9 1021.6 965.7 +9.5 +9.4
С 0.7
{1.2}
+9.4 +9.4 100 +9 +9 1021.5 965.6 +9.5 +9.4
С 1.2
{2.3}
+9.7 +9.7 100 +9 +9 1021.5 965.6 +9.7 +9.4
С 0.7
{2.0}
+9.8 +9.8 100 +10 +10 1021.6 965.7 +9.8 +9.7
СЗ 0.5
{1.0}
+9.7 +9.7 100 +10 +10 1021.7 965.8 +9.8 +9.7
СЗ 0.6
{1.0}
+9.5 +9.5 100 +9 +9 1021.9 966.0 +9.7 +9.5
СЗ 1.0
{1.5}
+9.3 +9.3 100 +8 +8 1022.0 966.1 +9.5 +9.3
СЗ 1.4
{2.2}
+9.3 +9.3 100 +8 +8 1022.2 966.3 +9.5 +9.3
СЗ 1.1
{1.8}
5.7 +9.4 +9.4 100 +8 +8 1022.2 966.3 +9.7 +9.5
СЗ 1.0
{1.8}
13.4 +9.5 +9.5 100 +9 +9 1022.4 966.5 +9.5 +9.4
СЗ 0.6
{1.5}
21.5 +9.6 +9.6 100 +10 +11 1022.5 966.6 +9.6 +9.5
СЗ 0.3
{0.7}
43.6 +9.7 +9.7 100 +11 +12 1022.6 966.7 +9.7 +9.5
СЗ 0.4
{0.8}
92.6 +10.6 +10.6 100 +11 +13 1022.6 966.7 +10.6 +10.2
В 0.5
{1.1}
107.1 +11.3 +11.3 100 +12 +15 1022.7 966.8 +11.3 +10.6
СВ 0.8
{1.4}
128.1 +12.3 +12.3 100 +12 +15 1022.7 966.8 +12.2 +11.3
СВ 0.6
{1.3}
98.1 +13.0 +12.4 96 +14 +16 1022.7 966.8 +13.0 +12.3
С 0.8
{1.6}
83.5 +13.6 +12.3 91 +14 +16 1022.7 966.8 +13.6 +13.0
З 1.6
{3.0}
479.5 +16.7 +10.6 67 +17 +27 1022.5 966.6 +16.8 +16.5
З 0.8
{2.2}
534.3 +17.9 +9.0 56 +19 +31 опасность
простуды
1022.4 966.5 +18.0 +17.2
СВ 2.3
{4.6}
764.4 +19.7 +7.6 45 +21 +36 комфорт 1022.1 966.2 +19.9 +19.3
СЗ 2.6
{5.6}
482.8 +23.4 +9.9 42 +25 +34 комфорт 1017.8 962.1 +23.4 +23.2
С 2.0
{5.3}
383.4 +23.2 +9.4 41 +25 +33 комфорт 1017.5 961.8 +23.2 +23.0
СЗ 2.4
{5.2}
340.1 +22.9 +9.4 42 +24 +31 комфорт 1017.4 961.7 +23.3 +22.9
С 2.2
{4.6}
271.7 +22.7 +8.2 39 +24 +30 комфорт 1017.4 961.7 +23.0 +22.7
С 2.4
{4.7}
235.0 +22.6 +8.7 41 +24 +29 комфорт 1017.3 961.6 +22.7 +22.6
С 2.3
{6.3}
203.2 +22.5 +8.4 40 +24 +28 комфорт 1017.3 961.6 +22.6 +22.5
СЗ 2.9
{5.4}
143.0 +22.0 +8.6 42 +23 +26 комфорт 1017.2 961.5 +22.3 +22.0
С 2.4
{5.5}
113.8 +21.8 +8.8 43 +23 +25 комфорт 1017.2 961.5 +22.0 +21.8
СЗ 2.4
{4.8}
64.0 +21.4 +8.8 44 +23 +24 комфорт 1017.0 961.3 +21.6 +21.4
С 2.0
{4.9}
28.9 +21.0 +9.0 46 +23 +24 комфорт 1017.0 961.3 +21.4 +21.0
СЗ 1.7
{3.3}
8.4 +20.3 +9.3 49 +22 +22 комфорт 1017.0 961.3 +20.7 +20.3
СЗ 1.6
{2.9}
1.7 +20.0 +9.5 51 +22 +22 комфорт 1017.0 961.3 +20.3 +20.0
СЗ 1.3
{2.6}
+19.8 +9.6 52 +22 +22 комфорт 1017.0 961.3 +20.0 +19.8
СЗ 0.8
{2.5}
+19.5 +9.9 54 +22 +22 комфорт 1017.0 961.3 +19.8 +19.5
СЗ 0.9
{2.4}
+19.2 +10.4 57 +21 +21 комфорт 1017.0 961.3 +19.5 +19.2
СЗ 0.9
{2.1}
+18.6 +10.5 59 +20 +20 1017.0 961.3 +18.8 +18.5
С 1.2
{2.4}
+18.5 +10.7 61 +20 +20 1017.0 961.3 +18.7 +18.5
СЗ 0.9
{1.4}
+18.1 +10.9 63 +19 +19 1017.1 961.4 +18.5 +18.1
СЗ 0.7
{1.4}
+17.8 +11.2 65 +19 +19 1017.1 961.4 +18.1 +17.8
СЗ 0.7
{1.2}
+17.5 +11.4 68 +19 +19 1017.0 961.3 +17.8 +17.4
С 0.3
{0.9}
+17.1 +11.6 70 +19 +19 1017.0 961.3 +17.5 +17.1
Ю 0.4
{0.7}
+16.8 +11.7 72 +19 +19 1017.0 961.3 +17.1 +16.8
СЗ 0.8
{1.3}
+16.5 +12.3 76 +18 +18 1016.8 961.1 +16.8 +16.5
СВ 0.3
{0.6}
+16.1 +12.6 80 +18 +18 1016.7 961.0 +16.3 +16.1
В 0.4
{0.5}
+15.8 +12.5 81 +17 +17 1016.6 960.9 +16.1 +15.8
СВ 0.4
{0.6}
+15.6 +13.3 86 +17 +17 1016.6 960.9 +15.8 +15.6
СВ 0.7
{1.1}
+15.5 +14.0 91 +16 +16 1016.5 960.8 +15.6 +15.5
В 0.6
{1.5}
+15.3 +14.3 94 +16 +16 1016.6 960.9 +15.5 +15.3
В 1.0
{1.6}
+15.1 +14.3 95 +16 +16 1016.5 960.8 +15.3 +15.2
В 0.9
{1.6}
+14.8 +14.3 97 +15 +15 1016.4 960.7 +15.1 +14.8
В 0.9
{1.4}
+14.6 +14.2 98 +15 +15 1016.2 960.6 +14.8 +14.6
В 1.2
{1.9}
+14.5 +14.2 98 +15 +15 1016.1 960.5 +14.6 +14.5
В 0.9
{1.6}
+14.5 +14.1 97 +15 +15 1016.0 960.4 +14.6 +14.5
В 0.5
{0.9}
+14.3 +14.0 98 +15 +15 1016.0 960.4 +14.5 +14.3
СВ 0.6
{1.2}
+14.0 +14.0 100 +15 +15 1015.8 960.2 +14.1 +14.0
В 0.7
{1.5}
+13.6 +13.6 100 +14 +14 1015.5 959.9 +13.6 +13.5
СВ 1.1
{1.8}
+13.6 +13.6 100 +14 +14 1015.2 959.6 +13.6 +13.6
СВ 1.1
{1.8}
+13.5 +13.5 100 +13 +13 1015.2 959.6 +13.6 +13.5
СВ 0.8
{1.3}
+13.3 +13.3 100 +14 +14 1015.0 959.4 +13.5 +13.3
СВ 0.9
{1.5}
+13.3 +13.3 100 +13 +13 1014.9 959.3 +13.4 +13.3
В 0.7
{1.1}
+13.2 +13.2 100 +14 +14 1014.9 959.3 +13.3 +13.2
СВ 0.7
{1.0}
+13.1 +13.1 100 +13 +13 1014.8 959.2 +13.2 +13.1
СВ 0.7
{1.1}
+13.0 +13.0 100 +13 +13 1014.6 959.0 +13.0 +12.9
СВ 0.6
{0.9}
+13.0 +13.0 100 +14 +14 1014.5 958.9 +13.0 +12.9
СВ 0.8
{1.1}
+12.9 +12.9 100 +13 +13 1014.5 958.9 +13.0 +12.8
В 0.6
{1.0}
+12.9 +12.9 100 +13 +13 1014.4 958.8 +13.1 +12.9
В 0.9
{1.6}
+12.9 +12.9 100 +13 +13 1014.2 958.6 +12.9 +12.7
В 1.2
{2.3}
+13.4 +12.8 96 +13 +13 1014.1 958.5 +13.4 +12.9
СВ 0.4
{1.0}
+13.0 +12.7 98 +14 +14 1014.1 958.5 +13.4 +13.0
СВ 0.3
{0.9}
+12.7 +12.7 100 +14 +14 1014.1 958.5 +13.0 +12.7
СВ 0.3
{0.7}
+12.5 +12.5 100 +14 +14 1013.9 958.4 +12.7 +12.5
В 0.3
{0.5}
+12.4 +12.4 100 +14 +14 1013.9 958.4 +12.5 +12.4
СВ 0.3
{0.7}
+12.3 +12.3 100 +13 +13 1013.9 958.4 +12.4 +12.2
ЮВ 0.6
{1.1}
+12.3 +12.3 100 +13 +13 1013.8 958.3 +12.3 +12.3
ЮВ 0.8
{1.2}
+12.2 +12.2 100 +12 +12 1013.8 958.3 +12.3 +12.2
В 0.7
{1.7}
+12.3 +12.3 100 +13 +13 1013.7 958.2 +12.3 +12.2
СВ 1.0
{2.1}
+12.3 +12.3 100 +12 +12 1013.7 958.2 +12.3 +12.2
СВ 0.8
{1.7}
+12.4 +11.2 92 +13 +13 1013.7 958.2 +12.5 +12.4
В 1.0
{2.1}
0.9 +12.2 +10.2 87 +12 +12 1013.9 958.4 +12.2 +12.2
ЮВ 0.8
{1.4}
5.2 +12.1 +10.4 89 +12 +12 1013.8 958.3 +12.3 +12.1
СВ 0.3
{0.7}
12.3 +12.0 +10.5 91 +13 +13 1013.9 958.4 +12.1 +12.0
В 0.4
{1.4}
19.6 +12.2 +10.7 91 +13 +13 1013.9 958.4 +12.2 +12.0
В 1.3
{2.0}
70.1 +12.8 +11.2 90 +12 +14 1013.9 958.4 +12.8 +12.5
В 1.2
{2.4}
91.2 +13.3 +11.1 86 +13 +15 1013.9 958.4 +13.3 +12.8
В 1.2
{2.7}
119.0 +14.1 +10.8 80 +14 +17 1013.9 958.4 +14.1 +13.3
В 1.5
{2.7}
164.1 +14.5 +10.8 79 +14 +18 1013.8 958.3 +14.5 +14.1
В 1.6
{2.8}
114.4 +15.4 +11.2 76 +16 +18 1013.7 958.2 +15.4 +15.0
В 0.8
{1.7}
332.1 +17.2 +11.7 70 +18 +26 1013.7 958.2 +17.2 +16.8
В 1.0
{1.7}
364.8 +17.6 +12.1 70 +19 +27 1013.7 958.2 +17.6 +17.2
ЮВ 0.9
{1.8}
398.1 +17.9 +11.3 65 +19 +28 1013.7 958.2 +17.9 +17.6
Ю 0.6
{1.5}
429.8 +18.7 +11.2 62 +21 +31 комфорт 1013.6 958.1 +18.6 +17.9
Ю 1.0
{2.9}
775.4 +22.7 +10.3 45 +25 +43 комфорт 1013.0 957.5 +22.8 +22.4
СЗ 1.6
{3.0}
821.0 +23.6 +10.2 43 +25 +43 комфорт 1012.6 957.1 +23.7 +23.3
З 2.1
{4.2}
861.1 +26.9 +7.1 28 +26 +44 жарко 1009.0 953.7 +26.9 +26.5
ЮЗ 1.7
{4.0}
712.4 +27.1 +8.8 32 +27 +42 жарко 1009.0 953.7 +27.1 +26.9
З 1.6
{3.4}
814.8 +27.5 +8.7 31 +28 +46 жарко 1009.0 953.7 +27.5 +27.1
З 1.5
{3.9}
752.3 +27.6 +9.5 32 +28 +44 жарко 1009.0 953.7 +27.6 +27.4
З 2.4
{6.3}
815.2 +27.4 +7.2 28 +27 +43 жарко 1009.0 953.7 +27.7 +27.5
З 2.8
{5.4}
815.8 +27.4 +7.6 29 +27 +43 жарко 1009.1 953.8 +27.4 +27.1
З 2.5
{6.5}
816.8 +27.4 +7.4 28 +27 +43 жарко 1009.1 953.8 +27.7 +27.4
З 1.9
{5.0}
800.3 +27.3 +8.4 30 +27 +44 жарко 1009.2 953.9 +27.5 +27.2
СЗ 3.3
{5.7}
792.4 +27.5 +8.1 29 +27 +41 жарко 1009.2 953.9 +27.5 +27.3
СЗ 2.5
{5.8}
794.3 +27.5 +7.0 27 +27 +43 жарко 1009.2 953.9 +27.6 +27.4
СЗ 1.4
{3.6}
741.9 +28.1 +7.9 28 +28 +44 жарко 1009.1 953.8 +28.1 +27.5
З 3.3
{6.0}
747.3 +27.9 +9.0 31 +28 +42 жарко 1009.0 953.7 +28.1 +27.7
З 3.0
{6.1}
751.8 +27.8 +8.7 30 +28 +42 жарко 1009.0 953.7 +28.0 +27.7
З 3.1
{6.4}
721.5 +27.7 +7.9 29 +27 +40 жарко 1009.0 953.7 +27.9 +27.7
З 3.5
{6.4}
736.4 +27.7 +8.2 29 +27 +40 жарко 1008.9 953.6 +27.7 +27.5
СЗ 3.0
{5.9}
724.2 +27.7 +7.1 27 +27 +41 жарко 1009.0 953.7 +27.7 +27.6
З 2.1
{5.3}
687.8 +28.1 +10.2 33 +29 +43 жарко 1009.0 953.7 +28.1 +27.7
З 3.0
{5.4}
651.6 +27.6 +11.1 36 +28 +40 жарко 1009.0 953.7 +28.1 +27.6
СЗ 3.1
{5.9}
629.7 +27.7 +9.0 31 +28 +40 жарко 1009.0 953.7 +27.7 +27.5
СЗ 3.1
{6.7}
567.7 +27.5 +9.1 31 +28 +39 жарко 1009.0 953.7 +27.7 +27.3
СЗ 2.3
{4.6}
581.5 +27.4 +8.4 30 +27 +39 жарко 1009.0 953.7 +27.5 +27.4
СЗ 2.5
{5.0}
571.0 +27.7 +8.0 29 +27 +38 жарко 1009.0 953.7 +27.8 +27.4
СЗ 2.8
{4.8}
552.7 +27.5 +7.7 28 +27 +38 жарко 1008.9 953.6 +27.7 +27.5
СЗ 2.6
{4.6}
531.6 +27.5 +7.0 27 +27 +37 жарко 1008.9 953.6 +27.6 +27.4
С 2.3
{4.8}
488.4 +27.6 +8.2 29 +27 +37 жарко 1008.9 953.6 +27.7 +27.5
СЗ 2.4
{5.3}
445.6 +27.5 +9.1 31 +28 +37 жарко 1008.9 953.6 +27.6 +27.5
СЗ 2.6
{5.9}
404.3 +27.3 +8.6 31 +27 +35 жарко 1008.8 953.5 +27.7 +27.3
СЗ 1.8
{4.4}
368.9 +27.5 +7.1 27 +27 +35 жарко 1008.8 953.5 +27.5 +27.2
СЗ 2.6
{5.3}
366.0 +27.3 +9.3 32 +27 +34 жарко 1008.8 953.5 +27.6 +27.3
СЗ 2.4
{4.7}
334.4 +27.4 +8.3 30 +27 +34 жарко 1008.9 953.6 +27.5 +27.3
СЗ 2.5
{6.0}
315.9 +27.2 +8.4 30 +27 +33 жарко 1009.0 953.7 +27.4 +27.2
Местоположение метеостанции Ташкент (город Ташкент, Узбекистан): широта 41.33 долгота 69.29 высота над уровнем моря 0 м.
В архиве по умолчанию представлена погода в Ташкенте за последние 1-2 суток. Обновление информации о фактической погоде в базе происходит ежечасно! Архивные данные за месяц целиком и за предыдущие месяцы Вы можете получить, выбрав интересующий диапазон дат из раскрывающегося списка и нажав кнопку "Ввод!".
*Определитесь, кто Вы:
Внимание! Время в таблицах - местное (без учета летнего времени). Для получения всемирного времени необходимо вычесть поправку, которая равна 5 ч.
Смотрите также архив погоды на ближайших метеорологических станциях:
Партнеры нашего сайта:      
Пояснения к столбцам:
  • Ветер - указаны скорость ветра в м/с - средняя за 10 мин, порывы в срок и между сроками (в фигурных скобках) и направление, откуда дует ветер: С - северный,
  • СВ - северо-восточный, В - восточный, ЮВ - юго-восточный, Ю - южный, ЮЗ - юго-западный, З - западный, СЗ - северо-западный.
  • Видимость - горизонтальная дальность видимости в метрах или километрах. При видимости от 1 до 10 км при отсутствии осадков обычно наблюдается дымка, при ухудшении видимости до 1 км и менее - туман. В сухую погоду видимость может ухудшаться дымом, пылью или мглою.
  • Явления - указаны атмосферные явления, наблюдавшиеся в срок или в последний час перед сроком.
  • Солнечная радиация - мощность потока солнечного излучения на поверхность земли и предметов в Вт/м2.
  • T - Температура воздуха - температура, измеренная на высоте 2 м над землей.
  • Td - Температура точки росы - температура, при понижении до которой содержащийся в воздухе водяной пар достигнет насыщения.
  • f - Относительная влажность воздуха - влажноcть воздуха, измеренная на высоте 2 м над землей.
  • Te - Эффективная температура - температура, которую ощущает одетый по сезону человек в тени. Характеристика душности погоды. При расчете учитывается влияние влажности воздуха и скорости ветра на теплоощущения человека.
  • Tes - Эффективная температура на солнце - температура, которую ощущает человек, с поправкой на солнечный нагрев. Характеристика знойности погоды. Зависит от высоты солнца над горизонтом, облачности и скорости ветра. Ночью, в пасмурную погоду, а также при ветре 12 м/с и более поправка равна нулю.
  • P - Атмосферное давление - приведенное к уровню моря атмосферное давление.
  • Po - Атмосферное давление - измеренное на уровне метеостанции атмосферное давление.
  • Tmin - Минимальная температура - минимум температуры воздуха на высоте 2 м над землей.
  • Tmax - Максимальная температура - максимум температуры воздуха на высоте 2 м над землей.
  • R - Количество осадков - Количество выпавших осадков за период времени, мм. При наведении курсора мыши на число - период времени, за который выпало указанное количество осадков.